Theta_e
342 337 337 334 325 323 315 316 324 321 323 331 330 326 326 329 329 323 345 345 346 347 351 351 356 355 355 356 355 351 350 349 349 348 347 346 346 344 343 342 341 340 340 339 339 340 346 343 342
338 331 332 330 318 312 313 321 318 324 328 330 329 327 326 329 341 343 343 345 348 349 350 350 356 356 357 354 351 350 349 349 347 346 345 345 343 342 342 341 341 340 341 343 345 351 351 350 352
330 330 327 324 319 312 314 320 322 327 331 330 329 332 333 333 341 344 346 347 348 348 349 353 356 358 356 352 350 349 348 348 346 344 344 343 342 342 343 344 345 345 345 346 349 353 354 355 355
325 327 327 318 313 318 319 322 325 325 330 331 330 330 338 344 343 345 347 347 347 346 348 354 357 358 355 351 349 348 347 346 344 344 343 342 342 343 343 342 342 343 345 347 352 353 352 352 351
325 326 317 315 314 317 322 326 326 322 327 331 331 329 334 345 348 347 347 346 344 344 345 349 357 358 354 350 348 348 347 346 343 343 342 341 342 342 342 343 343 344 349 349 352 350 351 351 350
320 324 314 311 313 316 321 326 324 323 328 330 330 332 337 349 348 347 347 344 342 342 343 350 358 355 352 349 348 347 347 345 343 342 340 341 341 342 341 342 344 346 351 352 350 349 348 348 348
320 318 313 314 314 315 319 325 324 323 326 326 331 330 338 343 349 348 345 343 340 342 342 348 356 355 351 349 347 347 346 344 343 341 341 341 340 340 340 343 345 349 352 350 349 348 348 348 346
324 318 313 316 315 315 322 324 325 327 329 334 334 328 331 343 348 345 345 342 340 341 341 345 348 349 348 345 347 347 345 344 342 341 341 341 339 339 340 343 346 350 351 349 348 348 347 345 343
323 313 313 313 316 317 323 322 330 334 331 331 333 333 340 343 344 342 340 338 337 338 340 342 344 345 346 343 343 345 345 344 343 341 340 340 340 341 341 339 345 348 350 348 346 345 345 344 343
316 314 315 318 319 321 322 322 325 326 328 329 332 336 338 341 340 337 335 334 333 335 338 340 344 342 345 342 338 339 341 341 345 342 341 343 343 341 339 339 345 347 348 347 345 344 345 345 337
317 313 316 317 319 321 321 321 326 324 319 330 331 332 336 337 336 334 332 332 332 335 337 339 344 345 345 342 340 340 341 345 347 349 348 347 344 343 341 340 341 345 348 342 341 338 336 334 333
312 315 318 319 320 319 320 325 322 326 326 334 337 335 336 336 336 334 333 334 335 337 338 341 344 347 348 344 342 340 341 344 345 347 349 348 344 344 345 341 341 339 339 340 340 333 335 334 333
313 315 317 318 320 320 322 320 323 326 332 337 337 336 337 338 338 339 339 339 339 340 342 342 346 348 351 349 344 341 341 342 344 346 347 347 345 347 345 344 340 340 339 342 333 337 337 332 333
315 314 315 316 317 319 317 319 323 329 335 335 336 336 338 339 340 341 341 341 342 344 346 345 345 351 352 351 349 345 344 344 345 345 348 348 348 348 344 343 340 340 338 337 335 334 333 333 331
314 311 313 313 317 315 319 314 321 330 334 334 335 337 339 341 341 342 343 344 346 346 348 349 347 351 352 354 352 349 346 345 345 347 352 349 349 350 347 342 341 341 341 338 337 334 340 332 331
311 312 307 312 314 315 317 310 321 328 331 332 333 336 338 340 341 344 345 347 350 350 350 351 347 349 352 352 352 350 348 346 349 356 353 349 348 347 346 342 342 340 339 339 337 330 336 333 330
309 305 307 308 314 314 314 314 321 323 327 330 333 336 337 339 342 344 346 347 350 352 354 354 352 347 352 353 353 354 354 348 349 351 353 350 348 345 344 343 338 342 338 342 338 331 336 333 329
304 305 306 307 311 314 311 315 320 323 324 329 333 334 336 338 341 343 343 344 348 353 355 357 356 353 353 351 354 352 357 350 348 349 354 349 347 344 344 339 336 340 340 339 336 336 333 333 329
309 307 307 310 313 312 312 314 318 323 325 326 330 333 333 337 341 341 342 344 344 348 355 357 358 359 353 349 348 348 349 349 347 348 350 349 346 343 339 334 339 340 337 337 336 333 333 329 331
310 307 307 311 313 312 313 313 318 321 323 325 327 330 332 336 340 342 344 345 346 345 350 355 357 358 355 351 352 350 351 349 351 350 351 348 345 342 338 338 342 342 336 337 335 335 330 329 331
307 308 308 308 312 313 313 311 314 318 323 326 329 330 331 331 336 340 343 345 346 346 350 353 356 358 357 356 352 353 352 351 347 347 346 347 346 343 341 341 342 342 339 334 337 337 335 326 329
306 311 311 309 308 304 313 301 312 316 318 322 326 329 330 329 332 337 342 344 345 346 351 355 357 359 357 358 356 355 346 341 343 345 346 347 347 343 342 343 341 342 339 342 337 335 335 333 326
309 312 310 310 309 310 310 305 310 315 315 319 324 328 326 328 332 337 339 344 346 348 351 354 357 358 358 357 357 351 350 346 347 347 348 352 349 345 342 343 343 342 339 342 338 336 336 331 327
314 311 311 312 309 303 308 306 307 311 314 317 324 325 325 328 330 333 337 342 345 348 351 353 354 356 356 355 355 355 351 349 345 345 343 343 342 345 344 343 343 342 339 340 339 338 337 336 336
313 310 302 300 301 300 309 306 309 316 318 319 321 324 324 327 326 330 334 335 340 344 348 351 353 353 354 354 353 353 353 352 351 348 345 344 338 339 345 345 344 340 341 339 340 340 339 338 334
310 310 303 297 298 301 310 304 310 319 321 322 323 324 323 325 326 329 331 333 337 341 345 348 351 352 352 352 353 353 356 348 347 350 345 342 340 341 346 346 344 341 341 340 340 336 336 336 335
309 306 312 307 307 303 306 310 316 318 318 320 320 320 321 323 325 327 329 332 334 340 344 345 348 351 353 352 353 355 350 347 348 347 347 346 351 343 348 344 343 342 340 338 338 335 337 335 337
313 314 305 307 299 297 303 305 307 313 316 317 318 320 322 325 326 329 332 335 336 337 343 347 349 348 349 351 345 341 341 340 340 341 339 342 343 342 344 344 344 342 341 340 340 340 339 337 336
309 309 310 310 308 301 299 303 316 316 317 317 318 321 322 324 325 329 332 335 338 338 337 345 347 347 347 342 339 337 337 336 333 334 335 340 344 345 343 343 342 341 340 341 342 341 338 336 336
313 310 312 304 304 306 305 303 317 317 318 319 319 322 324 326 327 328 328 331 333 337 335 342 345 349 348 345 340 336 338 334 335 336 337 340 344 347 344 342 341 340 338 338 336 333 334 333 331
Wind_Speed
11 13 11 9 11 6 9 13 1 17 12 11 11 12 13 18 16 9 10 12 20 18 16 15 12 13 13 11 11 10 9 9 9 10 10 11 11 11 10 9 8 8 7 6 5 5 2 1 2
14 9 9 10 4 5 7 12 18 13 10 5 8 4 13 18 17 14 11 17 20 17 15 15 12 12 14 12 11 10 10 10 10 10 10 11 10 10 9 9 9 8 8 8 8 7 8 5 4
14 10 11 12 7 3 12 13 13 10 9 5 7 17 15 11 10 15 17 17 18 16 16 15 12 14 15 13 11 11 10 10 9 10 10 9 10 10 10 9 9 9 8 8 8 8 10 12 12
8 9 9 11 10 13 9 13 9 10 8 10 7 16 16 8 8 17 17 18 16 16 18 15 11 15 16 13 11 10 10 10 9 9 9 9 9 9 9 8 9 9 8 8 9 11 11 12 10
9 10 15 9 13 7 13 10 8 8 6 10 5 18 15 14 18 17 15 15 15 17 16 15 10 16 15 12 11 9 9 9 9 9 9 8 9 9 9 10 9 9 6 8 11 10 11 13 10
10 10 13 9 16 6 11 9 7 13 14 12 14 13 12 15 12 15 15 15 14 17 17 16 14 15 14 12 11 9 9 8 8 8 8 8 8 8 8 10 10 9 10 10 11 11 12 11 10
15 12 8 9 14 11 10 4 10 8 12 10 5 15 9 15 11 13 13 14 13 17 16 15 16 14 13 13 11 10 9 9 9 8 9 8 7 5 4 8 9 8 10 9 10 10 11 10 9
11 11 5 7 13 15 11 4 10 12 10 5 4 11 13 18 16 13 13 14 13 13 15 15 16 15 14 13 11 10 10 9 8 9 9 8 7 6 5 5 9 7 8 8 8 8 8 8 5
13 14 10 2 10 15 11 14 10 10 10 11 3 15 18 17 15 14 12 13 12 10 12 14 15 14 15 15 12 10 10 9 9 9 7 10 6 8 10 10 6 6 7 7 5 3 6 7 8
13 13 12 7 6 16 8 14 13 12 15 13 16 19 18 16 13 14 13 12 13 11 10 11 10 11 12 12 13 12 11 9 8 8 8 10 3 6 7 7 5 7 7 8 5 7 9 12 8
16 8 7 5 5 7 13 5 13 12 15 18 18 18 18 16 14 14 13 13 13 11 9 11 8 8 10 10 9 6 7 6 5 5 6 3 1 5 7 6 8 8 11 5 8 3 3 7 7
8 4 1 5 7 6 6 15 10 10 10 15 19 20 18 16 14 13 12 11 12 11 10 9 10 6 6 7 7 7 6 5 6 7 6 3 6 4 2 4 3 2 3 2 3 4 4 4 5
15 8 5 7 6 4 2 6 13 15 11 16 20 19 18 15 14 13 13 11 11 12 11 8 10 9 6 4 6 5 5 6 4 5 6 3 3 1 3 3 5 2 2 2 4 2 1 4 1
2 8 7 8 8 6 11 10 7 12 14 16 19 19 17 16 15 13 13 12 10 12 12 11 11 10 8 7 4 5 4 5 4 4 5 4 4 2 3 3 4 2 2 3 3 3 5 1 5
6 10 8 7 7 7 10 9 9 12 14 15 17 16 16 14 15 14 12 13 12 11 14 11 11 12 11 9 7 6 5 5 6 5 4 4 3 4 5 3 4 0 1 1 3 2 3 4 2
13 17 13 12 9 7 12 14 16 14 15 16 15 14 14 14 13 12 11 9 11 11 13 12 11 13 11 10 7 6 3 4 3 2 4 5 4 2 3 2 2 2 3 3 3 3 4 8 3
14 12 18 13 13 9 13 15 12 11 14 16 14 14 14 13 11 10 9 10 10 10 11 13 12 12 12 9 7 6 4 4 5 4 2 6 5 4 4 0 3 2 3 3 3 5 3 8 4
18 19 10 12 13 11 11 8 11 9 11 17 15 13 13 13 12 11 9 8 9 10 10 11 11 9 11 8 7 6 4 5 5 6 4 5 5 4 3 2 5 4 4 4 4 7 4 6 7
11 16 22 13 16 13 10 8 14 11 10 11 16 16 13 14 13 10 10 10 9 10 11 11 12 11 8 8 7 8 5 7 5 5 4 5 2 1 3 4 7 6 6 4 6 5 7 6 5
16 18 12 11 10 14 9 9 9 10 13 11 12 12 15 17 15 14 11 9 10 11 11 12 11 12 10 8 7 3 2 2 2 3 4 4 5 5 6 6 7 5 5 5 6 7 7 7 6
16 15 12 13 11 13 8 13 11 11 7 5 3 5 4 6 11 14 14 12 10 11 11 11 12 12 11 10 6 4 3 2 4 4 5 7 7 7 7 8 6 4 6 5 8 8 9 7 7
15 15 12 16 14 14 13 4 11 15 12 11 10 11 12 8 7 8 12 12 11 11 12 12 12 13 13 12 9 8 6 6 2 1 1 3 4 6 9 8 7 6 6 7 6 7 8 8 8
15 14 12 16 14 10 15 10 20 13 16 16 13 13 8 8 10 12 14 13 11 11 11 11 12 13 13 13 10 8 9 5 3 2 3 4 5 6 7 5 4 4 6 7 8 7 7 7 8
6 11 10 9 12 12 12 9 6 9 9 4 12 12 10 11 10 10 10 12 11 12 12 12 13 13 12 12 12 9 4 5 2 4 5 6 6 7 8 8 5 5 6 8 6 9 9 9 8
14 12 8 9 13 10 15 8 11 12 8 4 10 14 11 11 13 12 13 12 12 13 13 12 13 13 13 13 11 8 5 3 4 4 7 4 6 4 9 10 8 8 9 10 7 8 9 9 10
18 16 12 13 13 13 11 9 8 11 6 4 7 11 13 12 13 12 12 11 12 12 12 13 14 14 14 12 10 7 4 5 4 4 7 6 7 7 2 7 4 7 10 10 10 7 8 10 9
17 17 16 9 5 7 15 6 11 9 8 6 9 13 14 12 13 13 12 11 12 14 11 12 14 13 12 11 8 5 5 8 8 8 9 7 6 8 8 6 8 10 10 9 8 8 10 9 9
11 13 6 7 9 12 10 9 11 9 11 11 8 11 12 12 11 12 10 11 12 12 17 12 11 12 11 10 10 9 7 10 7 7 4 6 8 10 9 8 9 10 10 12 12 11 12 12 9
9 8 9 4 8 3 9 6 12 10 6 5 11 16 17 17 16 12 13 15 16 16 9 13 12 11 11 13 12 9 7 8 3 2 5 6 7 9 10 10 12 11 11 11 11 12 12 11 13
15 14 13 8 12 8 10 6 10 10 10 2 8 3 3 5 10 9 11 8 12 14 13 14 6 12 11 11 9 8 7 6 6 5 7 10 9 9 10 11 12 12 12 12 12 12 13 13 11
Wind_Direction
225 229 241 264 244 214 114 98 39 40 55 41 41 31 64 32 14 98 120 117 109 113 119 133 136 132 130 119 111 105 103 95 86 82 77 75 71 68 61 57 57 53 52 43 40 31 8 59 89
262 252 244 273 165 247 80 57 62 62 57 101 61 48 61 64 71 107 154 122 110 121 140 130 140 140 122 111 111 113 111 107 98 85 80 77 76 72 71 65 63 60 60 51 43 38 53 98 114
260 256 272 241 247 62 79 78 79 82 50 27 113 44 31 98 98 131 118 127 119 130 117 122 144 130 121 113 125 124 117 105 93 87 85 81 77 72 70 63 58 55 52 51 49 45 64 69 65
234 215 242 265 86 57 76 91 95 120 100 40 112 96 70 65 100 116 131 123 126 139 121 136 149 131 119 130 131 125 116 104 93 86 82 78 75 73 62 50 42 37 39 52 53 68 60 66 61
239 260 251 242 83 111 85 65 73 89 120 65 36 91 87 81 102 128 134 138 145 125 124 138 143 119 119 131 128 121 113 104 96 93 92 88 82 66 51 37 29 32 43 78 74 74 75 72 56
236 258 250 176 96 98 108 133 109 57 91 102 106 126 80 107 129 146 147 146 137 125 135 138 131 121 128 131 127 122 120 109 104 99 99 97 84 69 46 35 32 44 70 86 82 81 78 75 66
255 240 305 81 103 174 107 148 90 76 100 63 156 79 119 142 150 153 155 131 138 130 128 142 139 132 132 131 133 136 126 113 112 112 112 108 91 86 62 63 54 72 86 86 82 85 81 73 65
288 280 212 143 153 104 114 107 80 48 74 86 334 116 156 124 179 148 139 141 140 142 148 158 141 158 159 149 140 139 131 126 127 123 122 135 153 185 146 148 65 91 96 91 88 91 98 104 89
243 266 186 119 121 128 177 138 91 114 133 71 50 107 119 148 159 154 148 148 148 153 148 152 153 155 160 135 141 150 148 149 144 142 167 195 200 178 127 63 51 109 106 97 91 124 150 152 164
239 257 67 36 39 130 160 129 125 168 129 115 101 106 129 147 157 153 154 157 154 156 158 145 139 164 133 143 160 163 158 173 189 170 201 232 46 30 55 103 121 141 145 141 156 224 222 211 199
236 263 101 148 49 318 114 140 129 85 299 136 135 137 143 152 157 154 158 159 153 158 154 145 154 163 151 148 179 167 169 157 170 174 211 76 216 168 207 156 171 160 186 198 191 180 302 4 357
254 32 214 129 160 221 155 110 146 65 66 107 143 148 148 153 151 147 146 148 147 156 155 145 152 176 209 148 197 167 173 176 187 186 197 175 223 159 317 355 14 274 137 197 61 54 340 26 341
246 156 190 155 176 251 57 199 127 101 107 123 144 153 155 157 158 151 148 156 157 157 154 172 150 171 201 215 197 199 168 199 195 166 187 268 286 49 272 17 298 333 55 113 92 177 307 162 133
101 167 168 181 171 199 222 117 218 114 132 133 150 161 163 165 165 159 166 166 177 159 162 171 180 165 204 212 201 197 221 160 209 195 154 192 262 118 306 229 248 215 226 144 149 89 244 170 118
180 193 186 186 176 141 246 143 138 136 144 148 158 165 164 182 174 173 185 169 185 176 158 177 191 169 181 220 198 215 182 211 204 197 138 231 231 156 311 261 297 59 137 34 215 217 254 251 195
204 228 197 163 163 149 238 180 121 158 146 162 158 160 165 187 183 175 179 195 174 201 169 187 193 175 180 201 189 226 188 242 250 68 154 191 211 216 224 244 325 218 222 200 213 223 235 275 215
220 211 229 145 197 165 229 120 132 182 181 155 166 165 175 171 186 170 196 195 205 195 189 186 199 191 179 196 203 230 124 231 256 203 241 165 221 219 261 337 264 216 233 216 203 226 233 250 256
205 234 233 173 178 237 199 130 135 178 200 151 164 182 178 174 182 169 187 190 193 195 206 197 194 210 175 188 212 213 175 218 247 245 201 163 238 220 232 130 269 239 234 188 206 246 216 266 200
236 208 226 199 165 211 204 145 155 165 207 175 171 174 191 183 186 181 185 176 188 195 190 200 192 186 187 197 201 220 184 223 224 242 192 214 270 92 187 218 223 228 258 246 179 224 238 227 260
275 208 205 122 167 242 140 226 144 172 198 195 187 201 185 181 177 190 203 195 185 189 194 193 197 181 198 193 223 249 232 245 195 191 159 202 212 198 229 247 261 212 255 199 232 237 252 217 213
232 239 171 170 195 230 181 225 175 182 179 185 245 260 171 178 188 189 196 192 185 181 185 189 192 178 195 203 199 199 185 237 210 172 205 207 222 224 228 236 262 282 263 203 212 229 235 231 203
212 234 212 208 184 211 213 249 216 185 181 192 198 200 213 173 189 182 173 175 180 174 175 176 180 175 190 202 185 203 221 246 82 230 354 213 192 233 234 227 232 247 258 259 202 228 240 246 260
253 177 237 213 197 199 186 260 179 176 179 189 196 179 212 158 162 154 170 171 171 167 168 169 174 177 183 186 225 184 245 166 220 224 264 226 188 216 258 240 240 231 231 247 250 239 216 243 254
166 184 205 212 220 235 253 220 220 144 191 161 178 189 183 157 157 157 141 157 163 166 168 172 173 178 181 188 210 208 236 269 235 218 278 244 202 188 216 241 229 220 244 256 213 239 237 240 266
205 178 192 206 219 232 215 178 290 181 153 189 185 182 166 152 156 157 161 176 166 162 170 170 172 176 182 190 191 197 221 220 277 265 259 327 308 228 185 216 236 237 230 243 237 226 239 234 244
199 196 233 186 210 224 168 212 251 78 113 210 209 167 155 169 157 173 170 176 168 168 175 172 171 179 181 186 190 191 182 231 225 230 284 327 318 308 119 203 226 233 254 232 236 237 232 235 231
211 225 247 304 259 268 190 222 152 162 143 185 171 154 159 180 179 184 190 192 188 165 178 178 172 180 181 185 182 162 78 31 48 5 344 321 296 270 252 258 240 230 223 236 234 239 242 242 237
276 206 223 244 279 248 230 197 108 151 145 161 184 172 176 192 199 192 197 198 209 194 164 179 168 179 164 195 95 99 125 139 191 171 198 282 307 303 305 292 258 248 243 230 225 234 236 237 235
207 216 230 319 291 321 269 106 65 108 106 150 191 191 201 202 207 201 203 207 219 169 186 151 161 177 109 123 125 134 159 207 164 273 319 283 274 272 266 264 267 262 258 259 251 247 252 241 236
224 221 196 247 216 276 308 116 108 136 125 125 321 77 49 282 354 332 298 264 151 243 146 125 154 117 150 145 156 171 188 228 272 313 312 292 291 280 273 269 271 274 269 266 265 265 264 257 247